Regional Weather Roundup
Issued by NWS Kansas City/Pleasant Hill, MO

Home | Current Version | Previous Version | Graphics & Text | Print | Product List | Glossary Off
Versions: 1 2 3 4 5 6 7 8 9 10 11 12 13 14 15 16 17 18 19 20 21 22 23 24 25 26 27 28 29 30 31 32 33 34 35 36 37 38 39 40 41 42 43 44 45 46 47 48 49 50

865
ASUS43 KEAX 090510
RWREAX

WEATHER ROUNDUP FOR EASTERN KANSAS AND NORTHWEST MISSOURI
NATIONAL WEATHER SERVICE KANSAS CITY/PLEASANT HILL MO
1100 PM CST MON FEB 08 2016

KSZ040-057-103>105-MOZ028-029-037-043-090600-
...KANSAS CITY METROPOLITAN AREA...

CITY           SKY/WX    TMP DP  RH WIND       PRES   REMARKS
K.C. INTL      CLOUDY    25  17  72 NW6       30.06F WCI  18
K.C. DOWNTOWN  PTCLDY    28  17  63 CALM      30.08F
LEES SUMMIT    CLEAR     27  16  63 NW12      30.06F WCI  17
OLATHE - IXD   PTCLDY    26  17  68 NW8       30.08F WCI  18
OLATHE - OJC   CLOUDY    27  17  66 NW14G21   30.07F WCI  16
LAWRENCE       CLOUDY    30  18  60 NW13      30.10F WCI  20

$$

MOZ001>008-011>017-020>025-030>033-038>040-044>046-053-054-090600-
...NORTHERN AND CENTRAL MISSOURI...

CITY           SKY/WX    TMP DP  RH WIND       PRES   REMARKS
ST. JOSEPH     CLOUDY    27  18  69 NW8       30.08S WCI  19
MOSBY          PTCLDY    27  18  69 NW13      30.07F WCI  16
WARRENSBURG    CLEAR     27  18  69 NW16G24   30.05F WCI  14
WHITEMAN AFB   MOCLDY    25  14  63 NW15G25   30.02F WCI  12
CLINTON          N/A     30  18  59 NW14G24   30.06F WCI  20
SEDALIA        CLOUDY    26  14  60 NW22G30   30.03S WCI  12
WARSAW         NOT AVBL
CHILLICOTHE      N/A     23  13  65 NW13G22   30.03F WCI  11
KIRKSVILLE     LGT SNOW  20  11  68 NW13      29.96F WCI   7

$$

MOZ041-047>049-056>058-063>065-088>090-097-090600-
...EASTERN AND SOUTHERN MISSOURI...

CITY           SKY/WX    TMP DP  RH WIND       PRES   REMARKS
ST. LOUIS INTL FLURRIES  24  11  57 NW13G22   29.92F WCI  12
SPIRIT OF STL  CLOUDY    23  12  62 W18       29.94F WCI   9
COLUMBIA       CLOUDY    23  13  65 NW16      29.97F WCI  10
JEFFERSON CITY CLOUDY    25  13  60 NW12      30.00F WCI  14
ROLLA          CLOUDY    22  14  71 NW14      29.93F WCI   9
OSAGE BEACH    CLOUDY    27  12  54 W9G18     29.99F WCI  17
SPRINGFIELD    PTCLDY    29  14  53 NW14G22   30.02F WCI  18
BRANSON        CLEAR     30  14  51 NW16G28   30.03S WCI  19
JOPLIN         PTCLDY    30  15  53 W9        30.12S WCI  22
WEST PLAINS    CLOUDY    27  17  66 NW12      29.97F WCI  17

$$

IAZ060-094-KSZ022-034>040-054-083-096-NEZ052-066-093-090600-
...KANSAS...SOUTHEAST NEBRASKA AND IOWA...

CITY           SKY/WX    TMP DP  RH WIND       PRES   REMARKS
TOPEKA         PTCLDY    32  19  58 W8        30.11F WCI  25
MANHATTAN      PTCLDY    32  20  61 VRB3      30.16S
EMPORIA        PTCLDY    31  18  58 NW10      30.13F WCI  22
CHANUTE        CLEAR     33  18  53 NW13      30.14S WCI  24
WICHITA        PTCLDY    33  18  53 NW15      30.19F WCI  23
OMAHA          PTCLDY    25  17  72 NW15      30.09S WCI  13
LINCOLN        CLOUDY    31  21  66 NW13      30.12S WCI  21
FALLS CITY     PTCLDY    30  20  66 NW16G23   30.08S WCI  19
LAMONI         CLOUDY    18  10  71 NW20G29   30.00S WCI   2
DES MOINES     FLURRIES  16   5  62 NW16G24   30.01R WCI   1

$$





USA.gov is the U.S. government's official web portal to all federal, state and local government web resources and services.